Location: Newark
(59.8814°N, 10.8258°E)
Time: 11:21:02
(UTC+00:00)

Envisat - Pass Details

Date: 27 January 2020
Orbit: 764 x 766 km, 98.1° (Epoch: 25 February)

Event Time Altitude Azimuth Distance (km) Brightness Sun altitude
Rises 17:57:24 0° 198° (SSW) 3,228 6.5 -19.4°
Reaches altitude 10° 18:00:01 10° 211° (SSW) 2,306 5.9 -19.7°
Maximum altitude 18:04:21 28° 269° (W) 1,422 5.1 -20.3°
Drops below altitude 10° 18:08:44 10° 328° (NNW) 2,319 5.9 -20.8°
Sets 18:11:22 0° 340° (NNW) 3,250 6.5 -21.1°
